Location: Unspecified
(0.0000°N, 0.0000°E)
Time: 17:50:21
(UTC+00:00)

Transit 4A - Visible Passes

Search period start: 18 January 2020 00:00
Search period end: 28 January 2020 00:00
Orbit: 871 x 973 km, 66.8° (Epoch: 17 January)

Date Brightness Start Highest point End Pass type
(mag) Time Alt. Az. Time Alt. Az. Time Alt. Az.
18 Jan 10.4 19:32:13 10° WNW 19:36:33 21° WSW 19:40:59 10° SSW visible
19 Jan 11.5 05:00:23 10° SE 05:02:23 12° ESE 05:04:21 10° E visible
19 Jan 11.2 19:43:58 10° W 19:45:54 12° WSW 19:47:51 10° SW visible
20 Jan 10.7 05:07:11 10° SSE 05:11:44 21° ESE 05:16:12 10° ENE visible
21 Jan 9.7 05:15:24 10° S 05:21:04 35° ESE 05:26:35 10° NE visible
22 Jan 8.6 05:24:11 10° S 05:30:23 60° ESE 05:36:23 10° NNE visible
23 Jan 7.9 05:33:22 10° SSW 05:39:39 81° WNW 05:45:45 10° NNE visible
23 Jan 11.1 18:33:08 10° WNW 18:36:54 17° WSW 18:40:45 10° SSW visible
24 Jan 10.8 03:59:30 10° SE 04:02:45 14° ESE 04:05:58 10° E visible
24 Jan 8.2 05:42:57 10° SW 05:48:55 47° WNW 05:54:45 10° N visible
25 Jan 10.0 04:07:04 10° SSE 04:12:06 25° ESE 04:17:01 10° ENE visible
26 Jan 9.1 04:15:31 10° S 04:21:25 43° ESE 04:27:09 10° NE visible
27 Jan 8.1 04:24:27 10° SSW 04:30:43 73° ESE 04:36:47 10° NNE visible
